Terminal Aerodrome Forecast
Issued by NWS

Home | Current Version | Previous Version | Text Only | Print | Product List | Glossary On
Versions: 1 2 3 4 5 6 7 8 9 10 11 12 13 14 15 16 17 18 19 20 21 22
000
FTUS41 KPHI 230300 AAA
TAFPNE
TAF AMD
KPNE 230320Z 2303/2324 08006KT P6SM SCT025 BKN050
     FM230700 09005KT P6SM OVC025
     FM230900 04006KT 6SM BR OVC010
     FM231300 06009KT P6SM OVC020
     FM231600 05007KT P6SM SCT025 BKN050=

USA.gov is the U.S. government's official web portal to all federal, state and local government web resources and services.